AirNav   Air Wisconsin pilot careers
 
 1000 users online  

7G8 Geauga County Airport
Middlefield, Ohio, USA

GOING TO MIDDLEFIELD?


FAA INFORMATION EFFECTIVE 11 OCTOBER 2018

Location

FAA Identifier: 7G8
Lat/Long: 41-26-58.5000N / 081-03-46.6000W
41-26.975000N / 081-03.776667W
41.4495833 / -81.0629444
(estimated)
Elevation: 1174.2 ft. / 357.9 m (surveyed)
Variation: 09W (2015)
From city: 1 mile SE of MIDDLEFIELD, OH
Time zone: UTC -4 (UTC -5 during Standard Time)
Zip code: 44062

Airport Operations

Airport use: Open to the public
Control tower: no
ARTCC: CLEVELAND CENTER
FSS: CLEVELAND FLIGHT SERVICE STATION
NOTAMs facility: CLE (NOTAM-D service available)
Attendance: UNATNDD
Pattern altitude: 2199.2 ft. MSL
Wind indicator: lighted
Segmented circle: no
Lights: ACTVT REIL RY 11/29; MIRL RY 11/29 - CTAF.
Beacon: white-green (lighted land airport)
Operates sunset to sunrise.

Airport Communications

CTAF/UNICOM: 123.0
CLEVELAND APPROACH: 125.35 [0600-2300]
CLEVELAND DEPARTURE: 125.35 [0600-2300]
WX AWOS-3 at POV (17 nm SW): 118.675 (330-298-9353)
  • FOR IFR CLEARANCE CTC CLEVELAND APCH CTL AT 216-352-2323.

Nearby radio navigation aids

VOR radial/distance  VOR name  Freq  Var
CXRr137/6.1CHARDON VOR/DME112.7005W
YNGr297/18.9YOUNGSTOWN VORTAC109.0005W
ACOr021/21.4AKRON VOR/DME114.4004W
JFNr222/23.4JEFFERSON VOR/DME115.2005W

 
NDB name  Hdg/Dist  Freq  Var  ID
LAKELAND143/19.926308WLQL .-.. --.- .-..
CASTLE320/38.827209WUCP ..- -.-. .--.

Airport Services

Fuel available: 100LL MOGAS
Parking: hangars and tiedowns
Bottled oxygen: NONE

Runway Information

Runway 11/29

Dimensions: 3500 x 65 ft. / 1067 x 20 m
Surface: asphalt, in fair condition
Weight bearing capacity: 
Single wheel: 18.5
Runway edge lights: medium intensity
RUNWAY 11  RUNWAY 29
Latitude: 41-27.025530N41-26.925922N
Longitude: 081-04.153237W081-03.398898W
Elevation: 1174.2 ft.1157.8 ft.
Gradient: 0.6%0.6%
Traffic pattern: leftleft
Runway heading: 109 magnetic, 100 true289 magnetic, 280 true
Displaced threshold: 182 ft.no
Markings: nonprecision, in fair conditionnonprecision, in fair condition
Runway end identifier lights: yesyes
Touchdown point: yes, no lightsyes, no lights
Obstructions: 79 ft. tank, lighted, 715 ft. from runway, 260 ft. left of centerline, 6:1 slope to clear
RWY 11 +3-5 FT BRUSH 0-200 FT FM RWY END; 250 FT L; +2-8 FT BRUSH 40 FT TO 200 FM RWY END 110 FT R.
70 ft. trees, 201 ft. from runway, 147 ft. right of centerline
RWY 29 +70 FT TREES 0-200 FT FM RWY END 210 FT R

Airport Ownership and Management from official FAA records

Ownership: Publicly-owned
Owner: GEAUGA CO BOARD OF COMM
COURTHOUSE ANNEX, MAIN ST.
CHARDON, OH 44024
Phone 440-285-2222
Manager: PATTY FULOP
P.O. BOX 1308
MIDDLEFIELD, OH 44062
Phone 440-632-1884

Airport Operational Statistics

Aircraft based on the field: 39
Single engine airplanes: 28
Multi engine airplanes: 2
Gliders airplanes: 6
Ultralights: 3
    
Aircraft operations: avg 20/day *
86% local general aviation
11% transient general aviation
3% air taxi
* for 12-month period ending 14 July 2017

Additional Remarks

PARALLEL TWY CLSD EAST OF T HNGRS PERMLY.
EXTSV GLDR ACTIVITY ON & INVOF ARPT.
DEER, BIRDS & OTHER WILDLIFE ON & INVOF ARPT.

Instrument Procedures

NOTE: All procedures below are presented as PDF files. If you need a reader for these files, you should download the free Adobe Reader.

NOT FOR NAVIGATION. Please procure official charts for flight.
FAA instrument procedures published for use from 11 October 2018 at 0901Z to 8 November 2018 at 0900Z.

 
STARs - Standard Terminal Arrivals
CHARDON THREE   download (255KB)
FAILS TWO   2 pages: [1] [2] (242KB)
ZABER SIX   2 pages: [1] [2] (410KB)
 
IAPs - Instrument Approach Procedures
RNAV (GPS) RWY 11   download (187KB)
RNAV (GPS) RWY 29   download (185KB)
VOR-A   download (150KB)
 
Departure Procedures
ALPHE FOUR (RNAV)   download (163KB)
AMRST FIVE   download (215KB)
NOTE: Special Take-Off Minimums/Departure Procedures apply   download (164KB)

Other nearby airports with instrument procedures:

2G1 - Concord Airpark (14 nm NW)
KPOV - Portage County Airport (17 nm SW)
KCGF - Cuyahoga County Airport (20 nm W)
KLNN - Willoughby Lost Nation Municipal Airport (20 nm NW)
KYNG - Youngstown-Warren Regional Airport (21 nm SE)
 
Loc | Ops | Rwys | IFR | FBO | Links
Com | Nav | Svcs | Stats | Notes


 
Area around 7G8 (Geauga County Airport)
 
Road maps at: MapQuest Bing Google
 
Aerial photo
WARNING: Photo may not be current or correct
Aerial photo of 7G8 (Geauga County Airport)
Do you have a better or more recent aerial photo of Geauga County Airport that you would like to share? If so, please send us your photo.

 
Sectional chart

 
Airport distance calculator
Flying to Geauga County Airport? Find the distance to fly.

From to 7G8

Sunrise and sunset
Times for 20-Oct-2018
 Local
(UTC-4)
 Zulu
(UTC)
Morning civil twilight07:1511:15
Sunrise07:4311:43
Sunset18:3522:35
Evening civil twilight19:0323:03

Current date and time
Zulu (UTC)  20-Oct-2018 20:39:16
Local (UTC-4)  20-Oct-2018 16:39:16
 
METAR
KPOV 
17nm SW 
202015Z AUTO 25012G20KT 10SM SCT050 SCT065 BKN075 12/03 A2963 RMK AO2 T01190026 PWINO
KLNN 
19nm NW 
202015Z AUTO 30017G28KT 10SM SCT045 BKN060 OVC110 12/02 A2961 RMK AO1 T01190015
KCGF 
19nm W 
201945Z 26015G20KT 10SM BKN030 BKN080 09/04 A2964
KYNG 
21nm SE 
201951Z 22010KT 10SM FEW050 BKN075 BKN110 11/04 A2963 RMK AO2 PK WND 23030/1941 LTG DSNT NW RAB38E49 SLP036 P0000 T01110039
KHZY 
26nm NE 
202001Z AUTO 27012G22KT 6SM -RA BKN032 OVC045 07/04 A2965 RMK AO2 LTG DSNT N AND NE TSE01 P0000 T00720044
KBKL 
28nm W 
202002Z 24023G31KT 10SM SCT110 13/06 A2962 RMK AO2 PK WND 24031/2002 LTG DSNT NW-NE RAE1956 TSE1956 P0000 T01330056
KAKR 
31nm SW 
201954Z AUTO 26015KT 10SM FEW050 FEW070 OVC100 13/05 A2965 RMK AO2 RAE1857B20E39 SLP039 P0002 T01330050
TAF
KYNG 
21nm SE 
201726Z 2018/2118 25012G22KT P6SM VCSH SCT025 BKN035 FM202300 28013G22KT P6SM VCTS SCT025CB OVC035 TEMPO 2023/2103 3SM -TSRA SCT008 OVC015CB FM210400 32016G35KT P6SM VCSH BKN010 OVC025 FM211500 31012KT P6SM BKN015
NOTAMs
Click for the latest NOTAMs
NOTAMs are issued by the DoD/FAA and will open in a separate window not controlled by AirNav.

 

 
 

FBO, Fuel Providers, and Aircraft Ground Support

  
 Business Name 
 
 Contact 
 
 Services / Description 
 
Fuel Prices
 
Comments
  
Geauga County Airport Authority 440-632-1884
no information available

If you are affiliated with Geauga County Airport Authority and would like to show here your services, contact info, web link, logo, and more, click here
100LL Mogas
AS $5.21 $4.38 
 Updated 11-Oct-2018
 
   write
AS=Assisted/Self Service
Update Fuel Prices
 

Would you like to see your business listed on this page?

 If your business provides an interesting product or service to pilots, flight crews, aircraft, or users of the Geauga County Airport, you should consider listing it here.  To start the listing process, click on the button below
 
Add a business
 

Other Pages about Geauga County Airport

www.co.geauga.oh.us/...
 
Update a link
 
Copyright © AirNav, LLC. All rights reserved. Privacy Policy  Contact